Location: Kalberh�ni
(46.4610°N, 7.2453°E)
Time: 21:51:50
(UTC+00:00)

USA 229 - Pass Details

Date: 24 October 2021
Orbit: 946 x 1266 km, 63.4° (Epoch: 25 November)

Event Time Altitude Azimuth Distance (km) Brightness Sun altitude
Exits shadow 01:52:41 26° 115° (ESE) 2,220 5.5 -42.0°
Drops below altitude 10° 01:55:45 10° 123° (ESE) 3,204 6.4 -41.6°
Sets 01:58:39 0° 127° (SE) 4,191 7.0 -41.2°
